{"data":{"norad_id":53577,"epoch":"2026-05-25T00:44:41.881056Z","epoch_age_seconds":75577,"freshness":"FRESH","line1":"1 53577U 22101BC  26145.03104029 -.00000595  00000+0 -19263-4 0  9995","line2":"2 53577  53.2124  71.1592 0001537  96.1700 263.9467 15.08840546208794","mean_motion":15.08840546,"eccentricity":0.0001537,"inclination_deg":53.2124,"raan_deg":71.1592,"arg_perigee_deg":96.17,"mean_anomaly_deg":263.9467,"bstar":-1.9263e-5,"rev_number":20879,"period_min":95.437520142039,"perigee_km":538.67844210176,"apogee_km":540.80499802031,"semimajor_km":6917.878720061,"source":"CELESTRAK","updated_at":"2026-05-25T13:38:17.472720Z"}}